EZY17XD ELLX-EGSS

Flight info

Callsign EZY17XD
Flight time N/A
Altitude 30000
Route LNO N852 TERLA L608 BUB M624 NIK DCT KOZUF DCT IMPOH DCT SASKI L608 SUMUM Y6 TOSVA
Aircraft A320/M-SDE3FGHIRWY/LB1

Departure

Time 2026-04-27 15:43
Airport Luxembourg-Findel International Airport (ELLX)

Arrival

Time N/A
Airport London Stansted Airport (EGSS)
Time Latitude Longitude Altitude Speed Heading
2026-04-27 15:23 49.63333 6.21557 1233 ft 0 kts 330°
2026-04-27 15:32 49.63319 6.21570 1247 ft 4 kts 328°
2026-04-27 15:33 49.63296 6.21593 1230 ft 4 kts 322°
2026-04-27 15:33 49.63276 6.21621 1232 ft 4 kts 307°
2026-04-27 15:33 49.63271 6.21633 1231 ft 0 kts 301°
2026-04-27 15:36 49.63279 6.21605 1232 ft 10 kts 292°
2026-04-27 15:37 49.63236 6.21527 1232 ft 11 kts 177°
2026-04-27 15:37 49.63173 6.21576 1231 ft 9 kts 146°
2026-04-27 15:37 49.63153 6.21596 1231 ft 0 kts 148°
2026-04-27 15:38 49.63115 6.21632 1229 ft 14 kts 149°
2026-04-27 15:38 49.63054 6.21570 1228 ft 12 kts 246°
2026-04-27 15:38 49.63018 6.21454 1230 ft 11 kts 243°
2026-04-27 15:39 49.62989 6.21362 1232 ft 8 kts 244°
2026-04-27 15:39 49.62962 6.21272 1233 ft 11 kts 244°
2026-04-27 15:39 49.62925 6.21154 1241 ft 13 kts 244°
2026-04-27 15:39 49.62883 6.21023 1243 ft 14 kts 244°
2026-04-27 15:40 49.62835 6.20867 1243 ft 18 kts 244°
2026-04-27 15:40 49.62771 6.20712 1247 ft 16 kts 225°
2026-04-27 15:40 49.62682 6.20603 1243 ft 17 kts 217°
2026-04-27 15:40 49.62604 6.20477 1246 ft 16 kts 229°
2026-04-27 15:41 49.62522 6.20330 1234 ft 21 kts 231°
2026-04-27 15:41 49.62436 6.20118 1228 ft 27 kts 240°
2026-04-27 15:41 49.62372 6.19946 1222 ft 15 kts 240°
2026-04-27 15:41 49.62312 6.19788 1215 ft 20 kts 240°
2026-04-27 15:42 49.62261 6.19650 1207 ft 25 kts 240°
2026-04-27 15:42 49.62191 6.19547 1201 ft 10 kts 166°
2026-04-27 15:42 49.62126 6.19601 1200 ft 11 kts 149°
2026-04-27 15:42 49.62090 6.19667 1202 ft 4 kts 67°
2026-04-27 15:43 49.62096 6.19679 1203 ft 2 kts 58°
2026-04-27 15:43 49.62228 6.20028 1225 ft 85 kts 60°
2026-04-27 15:43 49.62665 6.21199 1238 ft 164 kts 60°
2026-04-27 15:43 49.63292 6.22879 1857 ft 189 kts 59°
2026-04-27 15:44 49.63977 6.24696 2917 ft 203 kts 59°
2026-04-27 15:44 49.64718 6.26648 3809 ft 222 kts 58°
2026-04-27 15:44 49.65563 6.28900 3962 ft 254 kts 60°
2026-04-27 15:44 49.66447 6.31306 4000 ft 260 kts 60°
2026-04-27 15:45 49.67342 6.33747 4012 ft 262 kts 60°
2026-04-27 15:45 49.68250 6.36180 4014 ft 261 kts 57°
2026-04-27 15:45 49.69575 6.38035 4001 ft 260 kts 24°
2026-04-27 15:45 49.71353 6.38341 3994 ft 262 kts 348°
2026-04-27 15:46 49.72928 6.36973 4009 ft 265 kts 315°
2026-04-27 15:46 49.74139 6.34828 4009 ft 266 kts 310°
2026-04-27 15:46 49.75302 6.32596 4007 ft 266 kts 309°
2026-04-27 15:46 49.76460 6.30366 4008 ft 266 kts 310°
2026-04-27 15:47 49.77630 6.28160 4011 ft 266 kts 310°
2026-04-27 15:47 49.78822 6.25965 4080 ft 270 kts 310°
2026-04-27 15:47 49.80045 6.23766 5360 ft 268 kts 311°
2026-04-27 15:47 49.81273 6.21581 6908 ft 269 kts 311°
2026-04-27 15:48 49.82510 6.19387 8283 ft 273 kts 310°
2026-04-27 15:48 49.83775 6.17147 9630 ft 280 kts 310°
2026-04-27 15:48 49.85099 6.14905 10694 ft 297 kts 315°
2026-04-27 15:49 49.88944 6.11328 12171 ft 344 kts 339°
2026-04-27 15:49 49.91224 6.10073 13293 ft 351 kts 338°
2026-04-27 15:49 49.93508 6.08790 14407 ft 356 kts 338°
2026-04-27 15:49 49.95882 6.07437 15460 ft 360 kts 337°
2026-04-27 15:50 49.98242 6.06081 16505 ft 365 kts 337°
2026-04-27 15:50 50.00606 6.04718 17513 ft 369 kts 337°
2026-04-27 15:50 50.03030 6.03316 18528 ft 373 kts 337°
2026-04-27 15:50 50.05476 6.01904 19399 ft 378 kts 336°
2026-04-27 15:51 50.07955 6.00472 20264 ft 382 kts 336°
2026-04-27 15:51 50.10467 5.99023 21139 ft 387 kts 336°
2026-04-27 15:51 50.13001 5.97565 22001 ft 392 kts 335°
2026-04-27 15:51 50.15591 5.96077 22830 ft 397 kts 335°
2026-04-27 15:52 50.18182 5.94586 23641 ft 401 kts 335°
2026-04-27 15:52 50.20820 5.93058 24317 ft 406 kts 335°
2026-04-27 15:52 50.23483 5.91512 24985 ft 408 kts 334°
2026-04-27 15:52 50.26156 5.89964 25623 ft 411 kts 334°
2026-04-27 15:53 50.28849 5.88402 26249 ft 414 kts 334°
2026-04-27 15:53 50.31562 5.86827 26866 ft 417 kts 334°
2026-04-27 15:53 50.34293 5.85240 27463 ft 420 kts 334°
2026-04-27 15:53 50.37038 5.83639 28054 ft 423 kts 333°
2026-04-27 15:54 50.39815 5.82018 28623 ft 426 kts 333°
2026-04-27 15:54 50.42604 5.80390 29164 ft 429 kts 333°
2026-04-27 15:54 50.45409 5.78751 29692 ft 432 kts 333°
2026-04-27 15:54 50.48237 5.77099 30111 ft 435 kts 333°
2026-04-27 15:55 50.51050 5.75458 30192 ft 425 kts 333°
2026-04-27 15:55 50.56490 5.72288 30194 ft 412 kts 332°
2026-04-27 15:56 50.61883 5.69253 30197 ft 410 kts 331°
2026-04-27 15:56 50.66665 5.64801 30195 ft 391 kts 312°
2026-04-27 15:56 50.68480 5.61677 30195 ft 383 kts 301°
2026-04-27 15:57 50.69838 5.58106 30194 ft 377 kts 291°
2026-04-27 15:57 50.71519 5.50388 30195 ft 375 kts 285°
2026-04-27 15:58 50.73093 5.42538 30201 ft 375 kts 285°
2026-04-27 15:58 50.74663 5.34706 30192 ft 374 kts 285°
2026-04-27 15:59 50.76225 5.26868 30190 ft 374 kts 285°
2026-04-27 15:59 50.77786 5.19017 30188 ft 374 kts 284°
2026-04-27 16:00 50.79333 5.11180 30191 ft 374 kts 284°
2026-04-27 16:00 50.80877 5.03333 30197 ft 374 kts 284°
2026-04-27 16:01 50.82394 4.95464 30204 ft 374 kts 284°
2026-04-27 16:01 50.83634 4.88918 30205 ft 374 kts 284°